Theta_e
342 344 346 347 347 346 347 347 347 348 348 348 348 348 349 347 347 345 346 346 345 344 344 344 344 344 342 341 341 339 337 336 335 333 337 333 331 328 326 323 321 318 317 319 320 322 322 322 321 319 316 312
338 341 343 344 344 344 344 345 346 346 346 346 346 345 344 342 341 343 344 344 345 344 344 344 343 342 341 341 340 339 337 335 332 336 334 332 330 328 326 323 320 318 316 318 319 320 320 321 320 319 316 309
337 335 339 341 341 342 342 343 343 344 342 341 342 340 338 337 336 337 338 341 342 341 339 338 339 341 342 340 340 338 338 335 333 334 333 332 330 328 325 323 320 317 316 317 317 317 318 318 317 316 311 305
339 333 332 336 338 338 339 340 341 340 338 337 334 335 334 332 332 331 334 330 334 335 336 334 332 337 340 340 339 337 336 333 334 334 332 331 329 327 325 323 319 315 314 315 316 316 316 314 312 303 302 302
341 339 331 331 332 333 335 336 336 337 333 330 330 330 329 327 331 334 336 333 335 329 334 327 326 335 338 339 338 336 337 333 333 333 332 330 329 327 324 321 317 315 313 315 315 314 312 308 300 301 302 303
341 341 334 338 337 334 334 331 330 333 334 329 331 327 330 330 330 332 335 335 332 333 332 327 323 327 334 337 333 334 335 332 333 333 331 330 328 326 323 317 298 299 308 314 313 312 307 296 297 298 299 300
339 340 339 339 339 337 331 331 330 334 333 333 332 330 330 328 329 333 335 336 332 331 325 328 321 325 329 333 330 331 332 334 333 332 331 329 327 325 319 301 296 294 291 291 306 303 296 293 294 296 297 298
338 338 338 339 340 339 337 336 335 335 335 334 333 330 330 329 328 332 334 329 324 324 328 326 320 322 325 327 325 325 327 330 332 331 330 329 325 316 304 295 295 293 290 290 290 293 294 292 293 295 297 298
337 337 337 338 338 338 338 336 336 336 336 335 333 332 333 331 330 331 332 331 329 328 327 325 324 324 323 323 322 321 321 320 317 322 315 312 309 300 299 296 293 292 291 292 291 292 292 293 292 294 296 295
336 335 336 336 337 336 336 336 334 334 337 336 335 334 334 332 330 330 330 328 327 326 325 324 322 322 322 320 320 320 319 314 312 310 309 308 304 299 297 294 292 292 293 290 290 292 292 292 292 292 293 294
334 335 336 336 336 335 334 334 336 336 333 334 335 334 333 332 330 328 327 326 326 325 323 323 322 321 320 320 318 316 318 314 309 307 308 305 304 297 297 296 294 292 292 291 291 292 292 292 292 292 293 293
331 332 333 334 334 335 332 332 331 333 336 334 331 332 332 331 331 329 326 325 324 324 321 321 321 320 318 318 317 314 316 314 307 305 306 305 300 299 296 296 296 293 293 291 290 292 292 292 291 291 292 292
328 327 329 330 332 333 331 333 333 333 332 332 332 331 329 328 329 326 326 325 323 321 321 320 319 318 318 318 316 314 314 313 309 305 305 304 302 299 297 295 295 293 293 292 291 291 292 292 291 291 291 292
324 325 326 328 330 332 331 332 333 329 331 331 331 329 329 329 329 327 326 324 322 321 320 318 317 317 316 316 315 314 314 311 310 307 303 302 303 302 298 296 294 295 292 292 291 290 291 291 292 290 291 291
322 321 323 321 324 328 330 330 331 330 332 331 330 330 329 328 328 327 325 324 322 319 319 318 317 317 316 315 314 314 314 309 309 305 306 306 304 303 300 299 293 293 292 291 292 291 291 292 291 291 291 292
317 317 318 316 320 322 325 325 326 328 329 327 329 328 327 327 327 326 324 323 321 321 319 317 317 316 315 316 314 313 312 309 306 306 302 301 301 300 298 295 292 291 292 290 291 290 291 290 291 291 290 292
313 315 316 317 319 319 319 323 324 325 326 328 328 327 327 326 326 324 325 322 321 318 317 317 315 314 314 315 314 312 309 308 306 304 302 299 298 297 296 295 293 292 290 290 290 289 291 290 291 290 290 292
313 312 314 315 317 317 317 318 319 320 322 323 324 324 325 325 324 323 323 322 320 319 318 317 316 315 314 313 311 309 309 310 307 306 304 300 300 299 298 297 294 292 292 290 289 289 289 289 291 290 290 290
311 311 312 313 315 315 315 315 317 318 318 319 320 321 321 322 322 321 321 320 320 318 317 316 315 314 314 310 309 310 309 311 308 307 305 300 301 294 294 294 292 292 292 290 291 291 290 290 290 288 290 290
311 312 312 312 312 314 314 314 314 314 315 316 316 316 316 317 318 318 318 317 317 316 314 314 313 312 308 308 308 309 307 308 307 305 303 299 300 297 293 292 291 290 290 289 290 289 288 289 290 290 289 290
309 310 310 310 310 310 311 312 313 314 315 315 315 315 314 314 315 315 315 315 315 315 313 312 313 310 308 307 308 307 306 307 306 304 303 297 297 300 298 292 292 289 289 289 289 288 287 287 289 288 290 290
307 308 308 308 308 307 308 309 311 311 311 311 312 312 313 313 313 312 313 313 313 313 312 311 311 309 308 307 307 307 306 306 302 302 303 301 296 297 298 294 293 291 288 289 289 288 287 288 287 287 288 289
304 305 305 305 305 305 305 306 306 307 306 307 307 308 309 310 310 310 312 312 312 311 311 310 309 308 307 307 307 306 305 302 299 299 300 302 297 294 295 295 293 293 291 289 288 288 287 286 286 287 287 288
302 302 301 301 301 301 301 302 302 303 303 303 303 304 305 306 306 307 307 310 310 309 309 308 307 306 306 305 305 305 303 302 301 301 300 299 298 293 292 291 292 291 291 288 287 287 287 285 285 286 287 287
298 298 298 299 298 297 297 298 299 299 300 301 301 301 301 302 302 303 304 305 306 306 306 306 305 305 304 305 304 304 303 302 300 298 298 296 294 294 293 292 290 291 292 292 290 286 286 287 285 287 288 287
296 296 296 296 295 295 295 295 295 294 295 296 296 296 297 298 299 299 299 300 302 303 304 303 302 301 301 302 302 302 302 300 298 298 297 296 295 294 294 293 291 292 292 290 290 289 285 284 285 287 287 287
294 294 294 294 293 294 293 293 293 293 293 293 293 293 293 293 295 296 296 296 296 298 298 299 300 300 299 299 299 299 298 298 298 299 298 296 297 295 292 292 293 293 292 291 287 287 287 285 284 285 284 286
293 294 293 293 293 293 293 292 292 292 292 292 292 291 291 291 291 292 292 293 293 294 295 295 296 296 296 296 295 296 296 295 294 294 295 295 295 296 294 292 292 292 293 290 291 290 288 285 283 284 284 282
292 292 292 292 292 292 291 291 291 290 290 289 290 290 289 289 290 290 290 290 291 291 292 293 293 294 294 294 294 294 294 294 294 294 294 294 294 295 295 295 293 292 292 291 292 292 285 286 286 284 284 281
291 290 290 290 289 288 288 286 287 286 286 287 287 287 288 289 289 289 289 289 289 290 290 291 292 292 292 292 293 293 293 293 293 293 293 293 294 295 295 294 293 292 292 292 292 291 290 290 288 286 285 285
289 288 288 288 287 287 286 285 286 286 287 287 287 288 287 288 288 288 288 288 288 288 289 290 290 291 291 291 291 291 292 292 291 291 292 293 294 294 294 293 291 291 292 292 291 292 291 289 288 287 287 286
Wind_Speed
12 13 13 13 13 13 12 13 12 12 11 10 10 9 9 8 7 9 10 12 12 13 10 11 10 9 9 8 8 7 4 4 6 3 12 11 9 8 6 3 2 2 3 4 5 6 7 7 7 6 5 4
11 12 12 13 12 12 12 12 11 11 10 9 9 8 8 5 7 8 8 10 11 12 10 9 9 9 8 8 7 6 4 4 4 11 9 10 8 7 6 3 2 2 3 4 4 5 6 6 7 6 5 3
8 11 12 12 11 11 11 11 10 10 9 7 7 6 5 4 6 8 8 8 8 9 9 8 8 8 7 7 6 5 5 6 5 9 10 8 7 6 5 3 2 2 3 4 4 5 5 6 6 6 4 3
6 8 11 10 11 10 10 10 10 10 9 8 7 6 5 4 4 6 6 9 6 8 8 8 6 7 6 6 5 4 5 5 8 9 9 8 7 6 4 3 2 2 3 4 4 5 6 6 6 4 3 3
6 7 9 8 10 11 10 10 10 9 9 8 7 6 5 4 3 3 3 5 5 7 6 7 7 7 7 4 1 2 4 5 7 9 8 7 7 6 4 3 3 3 1 3 4 6 6 6 5 3 4 3
5 5 8 6 6 6 7 8 8 7 5 6 4 5 4 3 3 3 4 4 4 5 6 6 8 7 8 5 3 5 5 6 7 9 9 8 7 6 6 5 1 3 5 5 5 6 6 4 3 2 3 3
4 5 5 6 6 6 7 6 6 4 5 4 4 4 3 3 3 4 4 5 4 4 7 7 8 8 7 7 5 6 7 7 7 9 8 8 7 7 7 2 1 1 2 2 5 5 4 3 2 2 2 2
4 4 4 5 5 5 5 5 5 5 4 4 5 4 4 3 3 4 4 5 9 7 5 6 7 8 8 11 9 8 6 7 6 9 9 7 8 6 3 1 1 1 1 1 2 2 3 3 1 2 2 2
5 5 4 4 5 5 6 5 5 5 5 5 5 5 5 4 3 3 3 3 4 5 5 5 5 4 2 0 4 5 3 3 3 5 3 4 5 3 3 0 1 1 1 1 1 1 2 2 1 1 1 1
5 5 5 5 5 4 3 6 5 3 7 6 5 6 5 4 3 4 4 3 3 4 4 5 5 5 4 2 3 3 4 2 2 3 4 5 4 3 3 1 1 1 1 2 1 1 1 1 0 1 1 1
5 5 5 4 4 5 4 3 6 7 3 3 8 6 4 5 4 4 4 3 4 5 4 4 5 4 4 5 4 3 4 3 1 3 4 4 4 3 3 2 0 1 2 2 2 2 1 1 1 0 1 0
5 4 4 4 4 4 4 4 2 2 7 5 2 4 8 7 5 4 5 4 4 5 3 4 5 4 4 4 4 3 3 4 2 3 3 4 3 3 2 3 1 1 2 3 3 3 2 2 1 1 1 1
5 4 4 4 4 5 4 4 4 3 1 1 6 5 4 4 4 3 3 5 5 2 6 3 3 4 4 4 4 4 4 5 4 4 4 4 4 3 3 1 1 1 3 3 3 3 3 3 3 2 1 2
5 5 5 5 4 4 3 4 4 3 2 2 2 1 4 5 5 5 4 4 4 5 4 4 3 4 4 4 4 3 5 5 5 5 4 3 4 3 3 2 2 0 3 4 4 3 4 3 4 3 3 3
4 5 5 4 3 3 4 3 4 4 5 4 3 3 3 4 6 4 4 5 6 4 4 4 4 5 4 4 5 5 5 4 5 5 5 5 5 5 4 4 1 1 1 3 4 3 3 5 3 4 3 3
2 2 2 3 4 4 2 3 3 3 4 3 4 3 4 4 4 5 4 5 5 6 6 5 6 5 5 6 5 5 5 5 5 5 3 3 3 3 3 2 1 0 0 2 3 3 4 4 4 4 4 3
2 3 3 4 4 4 4 4 3 4 4 5 4 4 4 4 4 5 6 6 6 3 2 3 4 3 5 5 6 5 4 5 4 4 4 3 3 3 3 2 1 1 0 2 3 2 5 3 4 4 3 4
3 2 2 3 3 3 2 1 2 2 2 3 4 4 4 4 5 5 5 6 5 6 6 6 5 6 6 5 4 4 5 5 5 4 4 4 4 3 4 4 4 3 3 3 3 3 3 4 5 4 4 4
7 6 6 6 5 5 5 5 4 4 4 4 5 4 2 2 4 5 5 5 6 7 7 6 6 6 7 4 4 5 5 5 4 4 5 5 5 2 2 2 2 3 4 4 5 4 2 4 4 4 4 4
8 8 8 7 7 7 7 7 7 7 6 6 5 4 3 4 4 4 3 2 2 4 4 5 6 7 4 5 5 5 4 4 5 5 4 3 5 4 3 2 3 1 4 3 5 3 2 3 3 4 5 5
9 10 10 10 9 9 9 9 8 8 8 9 8 8 8 8 7 6 4 3 4 4 2 2 3 1 4 4 5 5 5 4 4 5 5 3 3 4 5 5 4 3 3 4 4 3 4 3 2 3 4 5
9 9 10 10 9 10 11 10 9 8 10 10 9 9 9 10 9 8 8 7 5 4 4 4 4 5 3 2 1 4 4 3 4 5 6 6 4 5 4 5 4 5 3 3 4 4 4 4 2 3 4 4
7 8 8 9 10 11 10 10 9 9 10 9 9 9 9 10 9 9 9 8 7 6 6 6 6 6 5 4 4 3 1 2 1 1 1 4 4 2 1 3 3 4 3 3 3 3 4 3 4 4 3 3
7 8 9 9 9 11 9 9 10 10 10 10 10 10 10 9 9 9 9 9 8 8 7 6 6 5 4 5 5 6 6 6 5 4 3 2 1 2 0 1 1 2 2 1 1 3 4 4 4 4 4 4
7 7 6 9 10 8 6 7 8 10 9 10 9 11 11 11 10 10 10 9 9 8 8 7 5 5 5 4 5 5 3 3 3 4 3 3 2 1 2 1 2 2 3 1 3 3 4 6 3 4 3 5
8 6 5 7 6 8 7 9 10 9 9 9 9 12 12 11 10 11 11 10 10 9 8 7 7 6 5 5 4 4 4 4 3 4 3 2 2 2 2 2 1 1 3 0 3 4 5 4 5 5 4 5
7 5 5 6 4 5 7 6 6 8 7 9 10 11 11 11 11 11 10 10 9 9 9 8 8 7 6 6 4 5 5 3 4 3 3 4 2 2 2 0 0 2 2 1 2 2 2 4 5 5 3 5
5 5 5 6 7 9 9 6 5 9 11 11 13 13 11 11 10 10 10 10 10 8 9 9 8 7 7 7 5 5 5 4 4 3 2 2 2 2 2 1 1 3 2 1 0 5 2 2 1 8 4 4
6 6 6 4 5 5 7 9 10 11 11 10 9 10 12 10 10 10 10 10 10 9 8 8 8 8 7 8 7 7 7 6 6 4 2 1 0 1 2 3 2 0 3 4 4 2 1 4 2 4 5 5
9 10 9 10 10 10 9 10 11 11 9 9 10 8 5 10 10 10 10 10 10 10 9 9 8 7 8 9 9 8 7 7 8 7 6 4 2 2 1 2 3 3 1 5 5 3 2 3 6 6 3 5
9 10 9 9 8 7 8 9 6 4 5 6 6 8 10 8 10 10 10 10 10 10 10 9 9 8 8 8 8 7 8 9 8 6 6 6 6 4 3 1 2 4 4 1 3 5 6 4 2 1 2 7
Wind_Direction
196 197 195 192 194 196 196 202 201 203 203 201 200 203 208 211 182 192 193 189 190 190 184 179 171 173 171 171 176 184 208 241 240 161 108 118 114 112 108 104 90 85 81 87 81 77 77 79 83 82 82 75
203 200 199 195 196 196 196 200 203 203 206 204 203 206 214 202 171 183 192 194 194 197 185 182 164 167 171 176 184 203 237 242 250 118 117 117 120 118 118 126 125 109 113 104 93 84 83 87 92 88 88 85
210 207 204 198 198 199 197 199 201 203 205 207 208 207 212 186 174 177 182 191 203 192 187 174 160 162 171 184 194 238 232 238 129 125 125 124 126 127 126 139 150 136 121 116 98 87 80 81 81 80 80 77
200 211 209 203 201 202 200 200 201 201 201 204 206 209 202 187 176 182 185 191 195 187 184 170 161 166 158 177 213 266 243 188 141 135 134 136 132 136 141 155 152 125 128 116 93 82 75 76 75 69 66 72
201 201 206 211 206 203 204 202 201 202 199 200 200 194 193 175 170 176 185 191 188 188 181 174 169 172 154 161 202 125 151 170 140 145 142 144 144 141 157 120 68 14 113 98 76 69 65 69 64 63 72 64
197 193 196 204 203 204 205 206 203 201 196 197 195 193 177 161 163 166 178 178 192 180 180 178 177 183 154 155 145 157 157 169 160 150 149 150 146 155 125 87 52 17 4 34 43 56 65 63 68 51 65 68
196 190 184 201 200 197 200 199 200 197 190 189 191 185 174 165 171 168 178 180 179 186 178 176 185 185 167 152 144 188 172 168 176 153 159 152 156 127 102 75 62 37 22 358 20 44 52 67 72 72 63 65
191 189 177 192 199 191 192 194 193 196 191 187 182 177 169 169 176 172 179 186 181 178 175 177 190 203 190 164 165 177 176 171 156 154 157 162 121 89 70 67 41 33 8 351 13 47 50 67 85 99 102 101
196 181 178 188 193 190 183 187 192 189 192 188 184 175 167 168 169 174 171 184 176 182 180 169 178 200 237 144 136 145 163 164 155 139 116 84 91 101 100 85 2 20 345 335 12 32 25 61 78 104 111 124
188 175 194 191 189 186 192 175 180 216 190 184 193 175 170 152 172 183 171 175 190 183 185 177 177 183 155 158 140 135 164 162 145 101 109 120 112 116 104 79 41 9 2 313 338 1 9 26 43 112 114 135
187 198 196 190 179 184 199 197 183 200 265 236 174 173 160 164 179 183 168 186 203 186 184 189 173 173 165 162 148 143 148 160 112 117 126 128 135 128 126 114 51 9 345 350 328 333 345 345 352 315 178 201
196 193 189 192 175 191 176 169 207 237 206 187 281 180 163 161 162 182 169 191 225 184 176 199 175 159 159 148 149 125 133 148 118 110 113 126 124 136 145 167 192 355 334 326 345 315 309 320 312 297 273 262
179 174 186 187 190 197 174 181 183 190 230 204 167 168 144 136 157 173 177 180 212 215 173 180 164 154 170 160 154 155 161 157 153 145 146 150 157 157 161 176 235 344 319 324 326 305 284 280 279 267 274 270
166 172 181 192 198 188 171 208 193 159 200 191 137 135 145 158 168 174 177 187 189 185 185 159 161 167 167 175 153 156 175 182 163 163 147 144 153 164 169 178 264 13 312 317 306 305 277 269 256 249 228 244
176 161 184 178 172 165 194 188 175 187 195 195 178 173 178 177 190 180 180 189 182 195 171 173 173 191 171 173 188 185 185 163 169 161 174 178 175 178 170 194 162 162 276 305 303 287 284 264 271 262 260 254
114 129 144 148 159 181 162 149 182 184 179 200 210 197 181 190 195 180 184 189 204 186 174 185 193 188 179 198 192 192 176 163 151 155 138 125 135 138 143 141 81 47 227 281 275 293 273 278 262 257 258 247
112 121 130 144 165 165 155 163 159 178 198 207 201 189 187 188 185 182 184 192 179 187 182 177 182 185 210 203 186 179 165 147 134 121 128 125 119 119 123 142 169 111 123 266 271 297 279 290 270 266 272 259
69 82 109 129 127 109 106 95 149 201 223 205 200 194 197 200 196 191 193 187 196 180 178 185 193 198 207 205 182 157 152 162 159 155 159 167 144 168 170 195 212 190 245 255 271 273 273 298 273 290 281 274
56 46 48 44 47 57 77 74 59 44 34 11 359 343 304 256 212 199 195 200 197 192 181 182 199 204 210 174 162 169 178 164 165 162 176 158 169 159 193 210 225 209 231 242 263 268 298 283 294 306 287 301
60 63 63 61 56 57 59 64 59 46 36 27 23 32 32 18 9 349 331 293 207 181 190 190 198 212 171 172 170 173 161 154 175 175 159 181 161 169 222 194 253 209 233 241 255 268 292 286 310 307 304 296
61 61 60 59 57 57 54 53 55 53 54 50 44 34 32 16 18 20 34 40 4 340 328 298 253 166 168 168 173 168 167 181 167 163 164 181 204 187 186 195 226 233 233 244 255 291 300 286 298 295 291 286
61 63 65 63 61 57 56 49 48 50 54 52 47 47 44 42 43 33 30 27 27 43 41 40 32 33 28 20 138 161 171 181 157 176 176 184 198 191 168 198 208 230 227 229 252 271 272 287 305 269 271 272
56 59 64 65 59 55 54 52 50 47 52 49 46 43 40 38 40 41 41 37 41 56 49 45 40 42 35 29 16 14 25 56 78 109 192 201 190 168 171 187 206 214 191 232 272 284 288 309 277 270 260 270
45 56 51 55 51 50 40 45 49 46 51 48 45 37 39 39 38 33 32 31 34 51 50 53 55 74 75 69 53 41 30 17 6 344 325 317 146 150 82 52 124 112 114 52 7 310 300 272 260 266 261 268
30 44 56 58 60 67 43 47 51 49 38 46 42 36 36 36 34 30 30 27 30 34 42 44 41 50 54 77 91 90 71 54 43 33 36 35 18 138 173 255 65 63 111 78 306 299 289 298 282 269 270 267
46 30 48 88 80 84 58 51 50 47 36 38 42 39 37 34 32 34 33 24 23 28 32 36 36 39 36 42 61 89 100 87 100 96 85 56 12 21 350 336 73 196 131 58 240 303 328 325 300 260 246 253
38 35 35 61 50 66 84 63 74 71 54 45 46 42 38 34 32 32 33 28 27 30 22 26 32 28 24 32 37 49 51 71 71 89 97 102 88 360 33 29 138 207 257 299 73 124 354 305 344 334 336 276
15 39 56 61 72 65 70 71 55 60 48 40 40 38 35 35 31 31 34 29 28 28 29 25 24 18 27 26 24 36 36 33 42 52 71 86 105 99 329 352 294 182 228 135 120 300 233 265 33 317 294 313
11 25 31 28 55 57 54 40 38 41 35 36 40 42 34 28 29 32 34 29 30 32 28 27 24 24 17 26 19 28 35 31 21 25 39 63 82 139 203 274 276 196 198 228 237 203 311 313 287 232 277 338
37 41 40 38 39 40 44 46 34 35 31 29 34 36 31 34 32 31 34 30 28 30 30 31 26 27 31 23 16 17 28 31 26 22 21 13 23 324 298 282 314 300 243 230 246 239 246 193 265 303 276 348
44 51 49 54 59 59 56 66 44 41 40 52 45 48 40 36 34 32 33 29 30 27 28 32 31 32 35 34 28 20 28 28 21 14 20 6 17 3 355 16 280 288 295 304 252 245 245 247 214 133 325 273